Location: Namasale
(1.5000°N, 32.6167°E)
Time: 19:09:29
(UTC+00:00)

Vanguard 3 - Pass Details

Date: 08 December 2021
Orbit: 508 x 3260 km, 33.3° (Epoch: 19 January)

Event Time Altitude Azimuth Distance (km) Brightness Sun altitude
Rises 19:44:54 0° 224° (SW) 4,112 11.3 -54.6°
Reaches altitude 10° 19:47:15 10° 219° (SW) 3,423 10.7 -55.0°
Enters shadow 19:49:23 21° 214° (SW) 2,875 10.1 -55.4°
